Clyde Park, MT

8:27 PM MDT on August 30, 2016 (GMT -0600)
Mission

Weather History for KLVM - February, 2013

Change the Weather History Date:

Sunday, February 10, 2013

  Actual Average Record
Temperature  
Mean Temperature 18 °F 28 °F  
Max Temperature 27 °F 39 °F 62 °F (2016)
Min Temperature 10 °F 18 °F -29 °F (1981)
Degree Days  
Heating Degree Days 46 37  
Month to date heating degree days 371  
Since 1 July heating degree days 4712  
Cooling Degree Days 0 0  
Month to date cooling degree days 0  
Year to date cooling degree days 0  
Moisture  
Dew Point 14 °F    
Average Humidity 69    
Maximum Humidity 93    
Minimum Humidity 47    
Precipitation  
Precipitation 0.02 in 0.02 in 0.52 in (1988)
Month to date precipitation 0.16  
Year to date precipitation 0.65  
Sea Level Pressure  
Sea Level Pressure 30.08 in    
Wind  
Wind Speed 13 mph (NW)    
Max Wind Speed 24 mph    
Max Gust Speed 31 mph    
Visibility 8 miles    
Events Snow    
T = Trace of Precipitation, MM = Missing Value Source: NWS Daily Summary

Daily Weather History Graph

Daily Weather History Graph

Search for Another Location

Airport or City:

Trip Planner

Search our weather history database for the weather conditions in past years. The results will help you decide how hot, cold, wet, or windy it might be!

Date:

Astronomy

Feb. 10, 2013 Rise Set
Actual Time 7:30 AM MST 5:41 PM MST
Civil Twilight 6:59 AM MST 6:12 PM MST
Nautical Twilight 6:24 AM MST 6:47 PM MST
Astronomical Twilight 5:50 AM MST 7:22 PM MST
Moon 7:18 AM MST (2/10) 6:42 PM MST (2/10)
Length of Visible Light 11h 12m
Length of Day
10h 10m
New Moon, 0% of the Moon is Illuminated
Feb 10
New Moon
Feb 17
First Quarter
Feb 25
Full
Mar 4
Last Quarter
Mar 11
New

Hourly Weather History & Observations

Time (MST) Temp. Windchill Dew Point Humidity Pressure Visibility Wind Dir Wind Speed Gust Speed Precip Events Conditions
12:02 AM 26.6 °F 15.7 °F 24.8 °F 93% 29.88 in 1.2 mi NNW 12.7 mph - 0.00 in Snow Light Snow
12:09 AM 26.6 °F 15.7 °F 23.0 °F 86% 29.88 in 1.0 mi North 12.7 mph - 0.00 in Snow Light Snow
12:20 AM 26.6 °F 16.2 °F 23.0 °F 86% 29.89 in 0.8 mi NNW 11.5 mph - 0.01 in Snow Light Snow
12:32 AM 26.6 °F 16.2 °F 23.0 °F 86% 29.89 in 0.8 mi NNW 11.5 mph - 0.01 in Snow Light Snow
12:42 AM 26.6 °F 18.2 °F 23.0 °F 86% 29.89 in 1.2 mi North 8.1 mph - 0.02 in Snow Light Snow
12:49 AM 26.6 °F 17.5 °F 21.2 °F 80% 29.89 in 3.0 mi North 9.2 mph - 0.02 in Snow Light Snow
12:53 AM 27.0 °F 18.0 °F 21.0 °F 78% 29.98 in 7.0 mi North 9.2 mph - 0.02 in Snow Light Snow
1:01 AM 26.6 °F 18.2 °F 21.2 °F 80% 29.89 in 10.0 mi NNW 8.1 mph - 0.00 in   Overcast
1:49 AM 26.6 °F 16.2 °F 21.2 °F 80% 29.90 in 10.0 mi NNW 11.5 mph - 0.00 in   Overcast
1:53 AM 27.0 °F 16.1 °F 21.0 °F 78% 29.99 in 10.0 mi NNW 12.7 mph - 0.00 in   Overcast
2:53 AM 26.1 °F 15.0 °F 18.0 °F 71% 30.01 in 10.0 mi NNW 12.7 mph - N/A   Overcast
3:51 AM 24.8 °F 17.9 °F 17.6 °F 74% 29.93 in 10.0 mi NE 5.8 mph 16.1 mph N/A   Overcast
3:53 AM 25.0 °F 19.3 °F 17.1 °F 72% 30.03 in 10.0 mi ENE 4.6 mph 16.1 mph N/A   Overcast
4:11 AM 24.8 °F 12.4 °F 15.8 °F 69% 29.93 in 10.0 mi NW 15.0 mph 18.4 mph N/A   Mostly Cloudy
4:53 AM 25.0 °F 11.7 °F 17.1 °F 72% 30.05 in 10.0 mi NW 17.3 mph - N/A   Mostly Cloudy
5:53 AM 25.0 °F 9.5 °F 12.9 °F 60% 30.07 in 10.0 mi NW 24.2 mph 31.1 mph N/A   Overcast
6:53 AM 23.0 °F 10.1 °F 12.9 °F 65% 30.10 in 10.0 mi WNW 15.0 mph - N/A   Scattered Clouds
7:53 AM 23.0 °F 9.6 °F 10.9 °F 60% 30.14 in 9.0 mi WNW 16.1 mph 31.1 mph 0.00 in   Overcast
8:53 AM 24.1 °F 9.8 °F 8.1 °F 51% 30.16 in 10.0 mi NW 19.6 mph 27.6 mph N/A   Partly Cloudy
9:53 AM 23.0 °F 10.1 °F 12.9 °F 65% 30.18 in 10.0 mi NW 15.0 mph 27.6 mph N/A   Mostly Cloudy
10:53 AM 25.0 °F 12.2 °F 9.0 °F 51% 30.18 in 10.0 mi NW 16.1 mph 23.0 mph N/A   Scattered Clouds
11:53 AM 27.0 °F 13.2 °F 9.0 °F 47% 30.18 in 10.0 mi NW 20.7 mph 31.1 mph N/A   Clear
12:53 PM 26.1 °F 11.0 °F 10.9 °F 53% 30.15 in 10.0 mi NNW 24.2 mph 31.1 mph N/A   Clear
1:53 PM 26.1 °F 12.7 °F 10.9 °F 53% 30.15 in 10.0 mi NNW 18.4 mph - N/A   Scattered Clouds
2:53 PM 27.0 °F 13.9 °F 12.0 °F 53% 30.15 in 10.0 mi NNW 18.4 mph 24.2 mph N/A   Overcast
3:53 PM 26.1 °F 14.5 °F 10.9 °F 53% 30.17 in 10.0 mi NNW 13.8 mph - N/A   Overcast
4:53 PM 23.0 °F 10.1 °F 9.0 °F 55% 30.19 in 10.0 mi NNW 15.0 mph - N/A   Mostly Cloudy
5:53 PM 21.0 °F 12.4 °F 8.1 °F 57% 30.21 in 10.0 mi NW 6.9 mph - N/A   Mostly Cloudy
6:53 PM 19.0 °F 6.8 °F 8.1 °F 62% 30.24 in 10.0 mi WNW 11.5 mph - N/A   Scattered Clouds
7:53 PM 17.1 °F 5.8 °F 7.0 °F 65% 30.25 in 10.0 mi West 9.2 mph - N/A   Clear
8:53 PM 12.0 °F -0.4 °F 5.0 °F 73% 30.26 in 10.0 mi WSW 9.2 mph - N/A   Clear
9:53 PM 12.0 °F 1.5 °F 6.1 °F 77% 30.26 in 10.0 mi West 6.9 mph - N/A   Clear
10:53 PM 10.9 °F -1.8 °F 5.0 °F 77% 30.26 in 10.0 mi NW 9.2 mph - N/A   Clear
11:53 PM 10.9 °F -4.1 °F 3.9 °F 73% 30.23 in 10.0 mi NW 12.7 mph - N/A   Clear